#timestamp,LO_Frequency,Hit,StdDev 
1514073615.2,286047000.1,N
1514073635.0,286047001.1,N
1514073635.9,286047001.1,N
1514073655.8,286046999.5,N
1514073675.6,286046999.2,N
1514073695.4,286047000.7,N
1514073715.3,286047002.5,N
1514073735.1,286047003.8,N
1514073755.9,286047005.6,Y
1514073775.7,286047002.8,P
1514073795.5,286047002.4,P
1514073815.4,286047000.0,N
1514073835.2,286046999.7,N
1514073855.1,286046998.6,N
1514073856.0,286046998.6,N
1514073875.8,286047001.1,N
1514073895.6,286046995.3,Y
1514073915.5,286046997.9,P
1514073935.3,286046995.1,P
1514073955.2,286046995.1,N
1514073975.9,286046997.8,N
1514073995.7,286046996.6,N
1514074015.6,286046995.4,N
1514074035.4,286046995.8,N
1514074055.2,286046997.9,N
1514074075.1,286046997.7,N
1514074076.0,286046997.7,N
1514074095.8,286046998.9,N
1514074115.7,286047001.0,N
1514074135.5,286046999.7,N
1514074155.3,286047002.7,N
1514074175.2,286047002.5,N
1514074195.0,286047004.0,N
1514074195.9,286047004.0,N
1514074215.8,286047002.8,N
1514074235.6,286047000.3,N
1514074255.4,286046999.7,N
1514074275.3,286047000.9,N
1514074295.1,286047000.8,N
1514074315.8,286046997.0,N
1514074335.7,286046998.0,N
1514074355.5,286046993.3,N
1514074375.4,286046995.6,N
1514074395.2,286046995.7,N
1514074415.0,286046997.8,N
1514074415.9,286046997.8,N
1514074435.8,286046999.6,N
1514074455.6,286046993.6,N
1514074475.5,286046995.1,N
1514074495.3,286046997.4,N
1514074515.1,286046995.7,N
1514074535.9,286046997.1,N
1514074555.7,286046997.2,N
1514074575.5,286046997.8,N
1514074595.4,286046997.8,N
1514074615.2,286046997.4,N
1514074635.1,286046997.4,N
1514074636.0,286046997.4,N
1514074655.8,286046998.3,N
1514074675.6,286046999.7,N
1514074695.5,286047000.9,N
1514074715.3,286046997.7,N
1514074735.2,286046997.8,N
1514074755.9,286046999.2,N
1514074775.7,286046996.8,N
1514074795.6,286046997.2,N
1514074815.4,286046997.7,N
1514074835.2,286046999.0,N
1514074855.1,286047000.3,N
1514074856.0,286047000.3,N
1514074875.8,286047000.1,N
1514074895.7,286047001.1,N
1514074915.5,286047000.8,N
1514074935.3,286046998.7,N
1514074955.2,286047001.1,N
1514074975.0,286047001.1,N
1514074975.9,286047001.1,N
1514074995.8,286047000.6,N
1514075015.6,286047000.4,N
1514075035.4,286047004.3,N
1514075055.3,286047000.2,N
1514075075.1,286047002.1,N
1514075095.9,286047001.9,N
1514075115.7,286047002.1,N
1514075135.5,286047000.8,N
1514075155.4,286046997.2,N
1514075175.2,286046996.4,N
1514075195.0,286046994.8,N
1514075195.9,286046994.8,N
1514075215.8,286046994.5,N
1514075235.6,286046996.7,N
1514075255.5,286046998.6,N
1514075275.3,286046997.0,N
1514075295.1,286046998.8,N
1514075315.9,286046999.6,N
1514075335.7,286046998.8,N
1514075355.6,286046999.6,N
1514075375.4,286046997.5,N
1514075395.2,286046996.8,N
1514075415.1,286046999.4,N
1514075416.0,286046999.4,N
1514075435.8,286046999.2,N
1514075455.7,286046996.7,N
1514075475.5,286046995.5,N
1514075495.3,286046995.1,N
1514075515.2,286046997.0,N
1514075535.0,286046997.1,N
1514075535.9,286046997.1,N
1514075555.7,286046997.4,N
1514075575.6,286046996.6,N
1514075595.4,286046998.3,N
1514075615.3,286046997.2,N
1514075635.1,286046996.7,N
1514075655.8,286046998.1,N
1514075675.7,286047000.4,N
1514075695.5,286047001.1,N
1514075715.4,286047000.8,N
1514075735.2,286046999.3,N
1514075755.0,286046998.3,N
1514075755.9,286046998.3,N
1514075775.8,286046998.6,N
1514075795.6,286046999.4,N
1514075815.5,286046997.6,N
1514075835.3,286046999.6,N
1514075855.1,286047000.9,N
1514075875.9,286046999.7,N
1514075895.7,286047000.0,N
1514075915.5,286047000.6,N
1514075935.4,286047001.2,N
1514075955.2,286047000.1,N
1514076005.1,286046999.9,E
1514076015.0,286047001.2,N
1514076015.9,286047001.2,P
1514076035.7,286047002.6,P
1514076055.6,286046998.1,N
1514076075.4,286046996.7,N
1514076095.3,286046996.7,N
1514076115.1,286047001.2,N
1514076135.8,286046998.8,N
1514076155.7,286046998.4,N
1514076175.5,286046999.4,N
1514076195.4,286047001.1,N
1514076215.2,286047001.0,N
1514076235.0,286047000.7,N
1514076235.9,286047000.7,N
1514076255.8,286047002.6,N
1514076275.6,286046999.9,N
1514076295.5,286046994.9,N
1514076315.3,286046997.9,N
1514076335.1,286047001.0,N
1514076355.9,286047000.6,N
1514076375.7,286046999.9,N
1514076395.6,286047000.1,N
1514076415.4,286047002.5,N
1514076435.2,286047001.2,N
1514076455.1,286046999.4,N
1514076456.0,286046999.4,N
1514076475.8,286046997.3,N
1514076495.6,286046995.5,N
1514076515.5,286046996.9,N
1514076535.3,286046996.9,N
1514076555.2,286046995.0,N
1514076575.9,286046996.4,N
1514076595.7,286046997.1,N
1514076615.6,286046997.3,N
1514076635.4,286047000.8,N
1514076655.3,286047001.2,N
1514076675.1,286047002.1,N
1514076676.0,286047002.1,N
1514076695.8,286047001.2,N
1514076715.7,286047000.3,N
1514076735.5,286047000.1,N
1514076755.3,286047000.5,N
1514076775.2,286046998.1,N
1514076795.0,286046999.2,N
1514076795.9,286046999.2,N
1514076815.8,286046997.6,N
1514076835.6,286046997.5,N
1514076855.4,286046995.4,N
1514076875.3,286046997.5,N
1514076895.1,286046997.9,N
1514076915.9,286046998.3,N
1514076935.7,286046998.7,N
1514076955.5,286046998.4,N
1514076975.4,286046998.9,N
1514076995.2,286046996.9,N
1514077015.0,286046995.1,N
1514077015.9,286046995.1,N
1514077035.8,286046991.8,Y
1514077055.6,286046993.7,P
1514077075.5,286046995.6,N
1514077095.3,286046997.8,N
1514077115.1,286046995.2,N
1514077135.9,286046999.5,N
1514077155.7,286046999.0,N
1514077175.5,286046996.7,N
1514077195.4,286046997.3,N
